[[{"header":{"parameterUnit":"m.s-1","parameterCategory":1,"la1":30.2992,"la2":30.254,"lo1":-89.0895,"lo2":-89.0443,"dy":0.0025,"dx":0.0025,"nx":19,"ny":19,"refTime":"2026-03-20T21:00:00:Z","depth":0,"parameterNumber":2,"parameterNumberName":"U-component_of_WINDS"},"data":[0,0,0,3.4385,3.4391,3.4672,3.4673,3.503,3.5033,0,0,0,0,0,0,0,0,0,0,0,3.4301,3.4303,3.4385,3.4392,3.4672,3.4673,3.5029,3.5033,0,0,0,0,0,0,0,0,0,0,0,3.43,3.4302,3.4305,3.4393,3.4671,3.4673,3.5028,3.4818,0,0,0,0,0,0,0,0,0,0,3.4546,3.4466,3.4302,3.4305,3.4394,3.4671,3.4673,3.4808,3.4831,3.4902,0,3.4964,0,3.5004,3.5057,3.5058,0,0,0,3.4393,3.4447,3.4523,3.4306,3.4397,3.4671,3.4546,3.4821,3.4847,3.4933,3.4969,3.4982,3.501,3.5059,3.5061,3.546,3.5462,0,0,3.4378,3.4351,3.4505,3.454,3.4496,3.4537,3.4555,3.4837,3.4875,3.497,3.4991,3.5016,3.5061,3.5064,3.5458,3.546,0,0,0,3.4332,3.434,3.441,3.4526,3.4576,3.4545,3.4565,3.4862,3.4887,3.4995,3.502,3.5063,3.5068,3.5456,3.5459,3.5519,0,0,0,3.4323,3.4313,3.4403,3.4389,3.4571,3.4723,3.4585,3.4868,3.49,3.5018,3.5063,3.5071,3.5455,3.5458,3.5513,3.5552,0,0,0,3.4283,3.4309,3.4348,3.4387,3.4506,3.4719,3.476,3.4875,3.4916,3.5058,3.5072,3.5453,3.5457,3.5508,3.5543,3.5647,0,0,0,3.4233,3.44,3.4349,3.4545,3.4504,3.4753,3.4758,3.4947,3.5076,3.5065,3.5455,3.5459,3.5506,3.5538,3.5641,3.5728,3.5761,0,0,3.4429,3.4423,3.454,3.4503,3.4754,3.4713,3.4974,3.5119,3.5159,3.5357,3.5368,3.5515,3.5543,3.5645,3.5964,3.599,0,0,0,3.4593,3.4677,3.475,3.487,3.4984,3.5084,3.5192,3.5245,3.5414,3.5255,3.5582,3.56,3.5661,3.5703,3.5726,3.578,3.5478,3.5477,3.5477,3.4831,3.4871,3.5067,3.514,3.5257,3.5365,3.5463,3.5553,3.5562,3.5638,3.5697,3.5885,3.5934,3.5951,3.6006,3.5747,3.5747,3.5748,3.5748,3.512,3.5244,3.5248,3.544,3.548,3.5642,3.5752,3.5752,3.5908,3.5844,3.5901,3.5826,3.5979,3.6029,3.5753,3.5752,3.5751,3.5751,3.575,3.5279,3.5345,3.5406,3.5582,3.5714,3.5782,3.5931,3.5964,3.5996,3.6051,3.6115,3.6115,3.6116,3.608,3.6081,3.6081,3.6082,3.6082,3.6083,3.542,3.5486,3.5607,3.5739,3.5819,3.5929,3.6037,3.6118,3.6215,3.6227,3.6227,3.6226,3.5987,3.5924,3.6093,3.6091,3.609,3.6089,3.6088,3.5696,3.5638,3.5824,3.5904,3.606,3.6187,3.6226,3.6386,3.6457,3.6529,3.6516,3.6334,3.6331,3.6313,3.6262,3.6508,3.6508,3.6508,3.6508,3.5828,3.5829,3.6025,3.615,3.6277,3.633,3.6538,3.6624,3.6703,3.6749,3.6719,3.6654,3.6635,3.6643,3.6618,3.6571,3.689,3.689,3.689,3.5999,3.6013,3.6184,3.6259,3.6383,3.6489,3.6685,3.6828,3.6907,3.6907,3.6786,3.6769,3.6665,3.663,3.6626,3.6587,3.65,0,0]},{"header":{"parameterUnit":"m.s-1","parameterCategory":1,"la1":30.2992,"la2":30.254,"lo1":-89.0895,"lo2":-89.0443,"dy":0.0025,"dx":0.0025,"nx":19,"ny":19,"refTime":"2026-03-20T21:00:00:Z","depth":0,"parameterNumber":3,"parameterNumberName":"V-component_of_WINDS"},"data":[0,0,0,0.6059,0.606,0.6107,0.6107,0.6174,0.6175,0,0,0,0,0,0,0,0,0,0,0,0.6049,0.605,0.6059,0.606,0.6107,0.6107,0.6174,0.6175,0,0,0,0,0,0,0,0,0,0,0,0.6049,0.605,0.605,0.606,0.6107,0.6107,0.6174,0.6136,0,0,0,0,0,0,0,0,0,0,0.6089,0.6084,0.6049,0.605,0.6061,0.6107,0.6107,0.6134,0.6138,0.6156,0,0.6172,0,0.6174,0.618,0.618,0,0,0,0.6057,0.6081,0.609,0.605,0.6061,0.6107,0.6085,0.6136,0.6141,0.6161,0.6173,0.6175,0.6175,0.618,0.618,0.6289,0.629,0,0,0.6055,0.606,0.6086,0.6093,0.6086,0.6084,0.6087,0.6139,0.6152,0.6173,0.6177,0.6177,0.618,0.6181,0.6289,0.6289,0,0,0,0.6049,0.6058,0.6066,0.609,0.6098,0.6085,0.6088,0.615,0.6152,0.6177,0.6177,0.6181,0.6182,0.6288,0.6289,0.6327,0,0,0,0.6047,0.6055,0.6065,0.6069,0.6097,0.6125,0.6098,0.6148,0.6154,0.6177,0.6181,0.6183,0.6287,0.6288,0.6324,0.6344,0,0,0,0.6045,0.6055,0.6063,0.6069,0.6089,0.6124,0.6129,0.6149,0.6154,0.618,0.6183,0.6287,0.6288,0.6322,0.634,0.6375,0,0,0,0.6044,0.6096,0.6064,0.6122,0.6089,0.6146,0.6128,0.6171,0.6197,0.6181,0.6287,0.6289,0.6321,0.6338,0.6372,0.6406,0.642,0,0,0.6113,0.6105,0.6139,0.6111,0.6176,0.6139,0.6209,0.6228,0.6226,0.6268,0.6271,0.6325,0.634,0.6374,0.6494,0.6505,0,0,0,0.6163,0.6188,0.6203,0.6229,0.6244,0.6259,0.6266,0.6273,0.6308,0.6249,0.6346,0.6355,0.6375,0.639,0.64,0.6417,0.6296,0.6296,0.6296,0.6271,0.6264,0.6319,0.6318,0.6342,0.6348,0.6368,0.6378,0.6364,0.6387,0.6401,0.6474,0.6493,0.65,0.6517,0.6416,0.6416,0.6417,0.6417,0.6373,0.6407,0.6386,0.6433,0.6425,0.6464,0.6471,0.646,0.6495,0.6464,0.6481,0.6449,0.6512,0.6527,0.642,0.6419,0.6419,0.6418,0.6418,0.6444,0.6459,0.6466,0.65,0.6528,0.6523,0.6558,0.6549,0.6541,0.6558,0.6571,0.657,0.6569,0.6564,0.6565,0.6565,0.6565,0.6565,0.6565,0.6516,0.6522,0.6552,0.6571,0.6586,0.6603,0.6609,0.6622,0.6635,0.6626,0.6626,0.6611,0.6519,0.6497,0.6569,0.6569,0.6568,0.6568,0.6568,0.6625,0.6598,0.6645,0.6659,0.668,0.6708,0.6695,0.6724,0.6734,0.6751,0.673,0.6664,0.6655,0.6647,0.6629,0.6731,0.6731,0.6731,0.6731,0.6686,0.668,0.6725,0.6748,0.6769,0.6762,0.6815,0.6819,0.6819,0.6824,0.6808,0.6782,0.6774,0.677,0.676,0.6743,0.6872,0.6872,0.6872,0.6753,0.6748,0.6795,0.6794,0.6809,0.6822,0.6871,0.6899,0.6893,0.6877,0.6828,0.6822,0.6781,0.6768,0.6753,0.6738,0.6706,0,0]}]]